THEOS

Last updated on Fri Sep 04 2026 00:02:44 GMT+0000 (Coordinated Universal Time)

1 33396U 08049A 26246.73820161 -.00000107 00000+0 -30365-4 0 9993 2 33396 98.5496 301.4434 0001325 88.1956 271.9373 14.20141486929119
UTC large
Height (km)
Speed (km/s)
/
Latitude / Longitude
Inclination (degrees)
Orbital Period (minutes)
Azimuth
Elevation
Range (km)
Doppler Factor

Next 0 passes for location: London (51.5072 / 0.1276)

No passes found over London.
THEOS